Dewpoint
2 -5 -10 -9 -7 -7 -5 -3 -1 -1 -3 -4 -4 -4 -4 -4 -5 -5 -5 -5 -4 -3 -5 -2 0 0 -6 -10 -7 -9 -10 -15 -15 -16 -14 -8 -5 -3 -3 -4 -4 -3 -3 -2 -3 -4 -4
4 4 5 4 -3 -9 -8 -7 -7 -5 -3 -2 -2 -3 -5 -7 -7 -7 -6 -6 -7 -8 -4 -1 -1 -2 -9 -8 -8 -9 -9 -12 -15 -15 -14 -10 -6 -4 -3 -6 -6 -5 -3 -3 -3 -3 -2
-0 -0 0 2 2 4 1 -10 -8 -8 -8 -7 -6 -4 -3 -2 -2 -2 -2 -2 -3 -3 -2 -3 -9 -13 -12 -7 -9 -10 -10 -9 -12 -11 -12 -9 -7 -3 -3 -3 -2 -2 -1 -3 -2 -3 -3
-1 -2 -1 0 0 3 4 4 -6 -11 -10 -9 -9 -8 -6 -4 -4 -5 -6 -4 -2 -3 -6 -8 -11 -14 -8 -7 -6 -6 -10 -9 -9 -9 -8 -8 -6 -3 -2 -2 -3 -3 -3 -4 -5 -5 -5
-2 -3 -3 -2 -5 -9 -0 3 3 -8 -13 -13 -12 -11 -10 -8 -7 -7 -9 -8 -5 -9 -10 -8 -9 -14 -7 -9 -6 -5 -6 -8 -7 -5 -5 -4 -3 -2 -4 -6 -6 -8 -8 -6 -7 -4 -5
-3 -5 -6 -5 -4 -4 -8 -10 -11 -13 -16 -15 -14 -14 -13 -12 -11 -12 -11 -13 -13 -13 -11 -9 -9 -8 -9 -9 -5 -6 -5 -5 -4 -3 -3 -5 -3 -4 -6 -8 -6 -8 -8 -7 -5 -7 -5
-3 -6 -8 -10 -8 -6 -3 -4 -3 -4 -7 -11 -13 -14 -15 -14 -13 -12 -12 -11 -10 -10 -9 -5 -5 -5 -7 -5 -5 -7 -6 -5 -5 -5 -5 -4 -4 -4 -5 -5 -6 -5 -4 -4 -4 -5 -5
-3 -5 -7 -10 -11 -11 -8 -6 -3 -2 -2 -7 -9 -13 -12 -11 -13 -14 -13 -4 -6 -9 -7 -5 -6 -6 -4 -4 -6 -7 -6 -7 -6 -5 -6 -4 -3 -5 -6 -5 -5 -4 -4 -6 -5 -6 -5
-2 -4 -5 -8 -11 -12 -12 -12 -9 -4 -2 -3 -7 -9 -12 -10 -11 -13 -12 -6 -7 -6 -8 -6 -5 -7 -4 -4 -4 -5 -7 -5 -5 -5 -5 -3 -4 -6 -6 -6 -5 -6 -6 -5 -4 -4 -4
-3 -3 -5 -7 -10 -11 -11 -10 -10 -10 -5 -3 -4 -5 -8 -9 -8 -10 -11 -8 -7 -3 -2 -6 -6 -6 -4 -3 -5 -4 -6 -4 -5 -5 -5 -4 -7 -7 -6 -5 -6 -7 -6 -4 -3 -2 -0
-5 -6 -6 -8 -10 -10 -11 -12 -11 -10 -10 -5 -5 -4 -6 -7 -8 -8 -10 -10 -11 -1 -6 -9 -7 -5 -5 -4 -4 -7 -4 -5 -5 -7 -8 -6 -5 -5 -9 -5 -6 -6 -6 -4 -2 -1 -1
-7 -8 -9 -9 -10 -11 -11 -11 -12 -13 -13 -8 -4 -5 -6 -9 -8 -9 -12 -12 -7 -1 -4 -5 -5 -4 -6 -4 -5 -6 -5 -7 -7 -6 -6 -6 -5 -8 -8 -6 -5 -5 -3 -1 -1 -1 2
-9 -9 -10 -10 -10 -11 -12 -13 -14 -14 -14 -14 -5 -5 -4 -10 -12 -10 -10 -3 1 -1 -5 -3 -3 -4 -4 -6 -6 -7 -6 -8 -8 -5 -4 -4 -4 -6 -4 -7 -5 -4 -1 2 2 2 3
-7 -9 -10 -10 -11 -12 -13 -14 -15 -16 -15 -14 -8 -5 -5 -3 -10 -8 -2 -4 -8 -3 -2 -4 -2 -3 -5 -7 -7 -7 -7 -6 -9 -7 -3 -1 -0 -5 -6 -7 -5 -4 -1 1 0 2 2
-3 -6 -8 -10 -11 -13 -15 -16 -16 -18 -18 -15 -10 -2 -5 -2 -0 0 2 -1 -4 -1 -3 -1 -3 -3 -3 -6 -6 -5 -7 -8 -9 -8 -2 -1 -1 -8 -7 -6 -5 -3 -0 -2 -1 -0 1
-2 -4 -6 -8 -10 -12 -14 -17 -18 -18 -20 -19 -11 -1 -4 -3 1 3 -1 -1 -2 -3 -3 -2 -1 -3 -2 -3 -4 -3 -2 -8 -8 -9 -8 -6 -1 -5 -6 -6 -4 -4 -3 -2 0 3 5
-1 -2 -4 -6 -7 -9 -12 -15 -17 -17 -17 -18 -13 -2 -1 -4 1 -3 -1 0 -1 -2 -3 -1 -1 -1 -2 -4 -4 -3 -2 -8 -8 -8 -8 -7 -3 -2 -3 -2 -1 -1 -2 -2 -1 1 3
0 -1 -3 -4 -6 -7 -8 -9 -12 -11 -11 -12 -14 -10 -1 -5 1 2 0 0 0 -2 -2 -2 -3 -2 -2 -4 -3 -2 -1 -8 -8 -8 -5 -6 -4 -1 -0 -3 -7 -4 -2 -2 1 -0 0
1 -0 -1 -2 -3 -5 -6 -6 -6 -7 -7 -8 -7 -4 0 -5 1 2 1 1 -0 -2 -2 -2 -2 -2 -5 -4 -1 -2 -2 -7 -8 -6 -4 -4 -1 -0 -1 -4 -4 -5 -5 -3 -2 -1 1
1 0 0 -0 -1 -2 -2 -3 -4 -4 -6 -7 -2 -3 -1 -0 1 -0 0 -1 1 -1 -2 -2 -2 -4 -3 -2 -3 -2 -2 -5 -8 -7 -4 -2 -0 0 0 -4 -0 1 0 -2 -1 -0 1
2 1 0 0 0 0 -1 -2 -4 -4 -6 -7 -1 1 1 -4 -0 1 0 0 1 1 -1 -1 -1 -2 -2 -0 -1 -0 -1 -0 -3 -6 -1 -2 -1 0 0 0 0 1 1 0 1 0 1
2 2 1 0 1 1 0 -1 -4 -6 -7 -9 -3 0 -0 0 0 1 0 -0 1 0 0 1 -0 -1 -2 -0 -0 1 0 0 0 -2 -3 -4 -2 -4 -3 -1 -1 0 -1 -1 -1 -1 -1
2 2 2 2 1 1 1 -0 -2 -5 -9 -12 -5 -1 0 -3 -0 1 0 -0 1 0 0 -0 -1 -2 -1 -1 -1 -1 -1 -1 -1 -0 -1 -2 -1 -1 1 -0 -1 -2 -2 -2 -1 -1 -1
2 2 2 2 2 2 1 0 -1 -5 -10 -16 -13 -10 -4 -9 -2 -1 -3 -3 -4 -4 -1 -2 -3 -2 -2 -2 -3 -2 -2 -1 -0 -0 -1 -1 -2 0 1 1 -0 -5 -5 -4 -3 -2 -2
3 2 2 2 2 2 2 1 -1 -6 -11 -14 -19 -15 -8 -5 -2 -3 -3 -3 -3 -3 -4 -4 -5 -3 -2 -2 -2 -2 -3 -5 -5 -3 -2 -0 -0 0 1 -1 -2 -3 -5 -3 -1 -0 -2
4 3 3 2 2 2 1 -1 -2 -8 -13 -18 -20 -19 -7 -5 -8 -3 -3 -2 -3 -4 -3 -4 -2 -3 -2 -2 -1 -0 -1 -6 -6 -5 -5 -1 -1 0 1 2 1 -4 -5 -7 -6 -0 -4
4 4 4 3 3 2 -0 -5 -7 -9 -14 -18 -19 -18 -11 -6 -8 -4 -4 -4 -2 -2 -3 -3 -4 -5 -2 -2 -0 -0 -1 -4 -3 -5 -3 -4 0 2 1 2 1 -4 -6 -5 1 -1 -5
3 3 3 3 2 1 -3 -6 -8 -12 -15 -15 -14 -13 -13 -7 -12 -7 -5 -4 -3 -4 -4 -7 -12 -7 -4 -2 -2 -2 -3 -4 -2 -5 -4 -3 -2 -0 0 2 0 -7 -7 -4 -4 -7 -9
0 0 1 0 0 -1 -2 -7 -10 -13 -13 -11 -12 -10 -10 -11 -12 -13 -10 -10 -8 -8 -8 -6 -7 -4 -4 -3 -4 -4 -2 -4 -4 -3 -6 -4 -4 -4 -3 -4 -7 -7 -7 -7 -8 -11 -10
Wind_Speed
20 18 16 14 13 13 13 13 13 13 14 15 15 15 15 15 15 15 14 13 12 11 6 4 3 2 5 9 7 6 6 4 3 3 3 4 3 4 4 2 1 1 2 4 8 14 16
23 21 18 15 12 9 8 9 10 10 10 11 12 12 13 13 13 12 12 11 10 7 6 6 3 5 5 8 6 6 4 5 4 5 5 4 4 4 4 2 2 2 6 12 7 7 7
25 25 23 19 13 11 8 4 4 6 8 8 8 8 9 10 11 11 10 9 8 8 7 5 9 13 14 8 8 8 4 5 6 6 6 6 5 2 3 2 3 4 6 6 0 5 3
26 27 30 27 22 16 13 11 7 4 3 4 5 5 5 6 7 8 8 7 7 6 4 4 5 5 7 9 10 8 5 3 4 5 5 5 4 5 3 2 3 4 4 5 2 7 1
25 27 30 31 27 23 19 16 13 10 7 5 4 3 4 4 4 4 5 7 6 4 5 4 5 5 4 6 9 11 9 6 5 6 6 5 4 4 3 3 4 7 2 2 8 3 4
23 25 27 28 29 25 23 20 17 14 11 8 4 3 1 3 5 4 6 7 8 4 4 6 6 4 4 3 5 9 6 5 4 4 4 3 4 4 4 5 2 3 4 3 5 4 4
19 22 24 25 26 26 23 19 18 16 12 9 6 4 1 1 4 6 9 7 5 5 14 9 6 4 4 3 6 8 6 3 3 4 4 5 6 2 2 1 2 1 3 4 4 5 7
17 19 20 22 23 23 23 22 17 17 16 12 7 3 4 2 6 8 6 1 3 9 9 8 6 6 6 4 2 11 4 2 4 3 3 5 3 3 1 1 2 4 3 4 5 2 3
15 17 18 19 20 20 20 20 20 16 17 16 10 6 3 5 5 7 5 6 9 6 4 4 6 5 5 4 3 10 8 4 4 3 3 5 3 1 1 0 1 3 3 2 3 7 1
12 14 16 18 18 19 19 19 19 17 14 17 15 9 4 2 2 6 5 8 4 2 5 9 7 5 6 3 4 7 6 1 2 3 3 3 1 1 2 2 1 3 2 3 5 5 3
11 13 15 17 18 19 19 19 18 17 15 11 15 13 8 4 3 5 6 9 3 1 4 3 3 4 4 1 3 4 5 1 2 2 3 0 1 2 2 1 1 3 2 3 1 2 3
11 13 14 15 16 17 18 18 18 17 16 12 11 12 9 8 7 8 8 6 0 6 2 3 2 5 2 3 3 4 1 3 3 3 3 2 0 1 1 2 0 5 3 4 3 2 2
10 11 13 14 15 15 16 17 17 17 16 13 8 12 11 8 7 9 7 2 5 6 2 3 2 4 1 3 3 5 3 6 3 4 7 6 1 1 2 3 1 7 5 4 5 4 4
8 9 10 12 14 15 16 16 17 17 16 14 7 10 13 9 5 3 1 4 7 2 2 1 1 2 2 4 3 6 2 4 5 4 3 3 6 2 2 2 1 3 2 4 4 2 5
9 9 9 10 12 13 14 16 16 17 15 14 7 1 12 9 4 1 1 6 5 5 1 3 2 4 4 2 3 6 2 3 2 1 3 2 5 1 2 1 2 1 1 3 2 1 2
10 10 10 12 13 13 13 13 14 15 16 13 6 2 10 9 5 2 4 3 2 2 2 1 1 2 2 4 5 5 1 2 3 0 2 4 4 0 1 1 3 1 4 2 3 1 4
10 11 11 11 13 14 14 14 13 13 13 13 5 1 8 9 4 2 3 4 2 1 1 2 0 2 1 2 1 2 2 1 2 2 2 3 3 4 1 3 5 1 0 3 2 3 4
11 11 11 12 12 14 15 16 15 14 13 10 3 1 6 6 2 3 2 2 2 2 1 1 1 2 3 1 2 3 4 3 7 7 4 1 3 4 8 0 1 1 4 5 3 4 3
10 10 11 11 12 12 14 15 16 16 16 15 5 2 4 5 3 1 1 0 1 3 2 2 1 4 1 2 2 4 2 2 6 5 6 5 0 3 8 4 2 3 4 4 3 2 7
11 10 11 11 12 12 13 13 13 13 12 12 7 3 3 5 5 4 2 1 1 3 2 3 2 2 1 2 4 3 2 2 3 3 3 7 4 7 7 5 3 4 5 4 4 2 8
12 12 10 10 12 12 12 13 13 10 9 8 4 2 1 1 2 3 1 1 2 2 2 5 1 4 6 3 2 4 1 4 1 2 3 3 5 5 8 8 7 12 12 13 15 18 11
15 12 12 9 10 14 14 13 11 10 8 4 3 4 3 1 1 3 1 3 4 2 4 3 3 2 5 6 7 4 3 3 6 1 4 0 4 2 4 9 14 19 15 19 22 23 22
16 16 13 12 8 13 13 14 12 11 7 1 1 0 2 3 1 2 3 2 3 0 1 2 2 1 4 8 13 14 15 16 13 7 7 6 4 2 6 1 6 9 11 16 4 5 7
19 17 18 15 12 11 13 15 14 11 6 2 1 0 2 3 1 3 1 0 2 2 3 1 4 4 3 10 14 12 15 21 22 21 18 5 6 3 8 5 6 5 4 6 8 5 5
24 20 20 18 15 14 14 15 14 11 8 4 3 3 3 2 4 5 2 3 4 5 3 5 5 4 5 5 3 5 4 5 4 3 6 17 5 6 4 4 9 10 5 1 4 1 2
27 25 22 20 18 17 15 15 12 11 9 6 4 5 5 2 5 5 4 4 3 2 3 2 1 4 2 3 1 2 4 3 5 3 5 3 7 7 3 4 5 4 5 6 1 4 4
27 28 25 24 21 18 14 12 11 9 8 6 5 6 6 4 5 6 4 3 4 2 1 3 4 4 1 2 2 3 4 3 4 3 2 3 2 13 12 8 7 3 5 5 3 4 12
30 29 27 24 22 19 12 11 10 8 7 6 5 6 8 5 7 8 7 6 4 4 3 1 4 1 2 1 2 3 3 3 3 3 3 5 4 4 3 5 8 10 5 1 8 22 24
10 13 14 13 15 16 11 10 10 8 8 7 6 7 7 8 6 6 7 8 10 7 5 4 2 2 1 2 1 2 2 1 2 3 2 4 5 1 5 6 10 8 3 15 19 24 25
Wind_Direction
46 50 49 41 51 57 61 62 61 73 81 84 81 85 89 93 100 111 120 124 133 141 117 112 111 77 112 94 78 58 46 47 55 72 132 137 128 112 134 144 316 171 289 267 277 288 289
47 43 41 44 41 40 58 66 68 64 67 78 85 88 91 95 101 107 110 116 129 135 116 101 60 81 101 75 68 36 33 45 73 92 105 139 127 119 115 127 130 316 290 291 307 299 281
55 47 40 34 43 45 38 48 71 72 69 60 68 84 97 104 109 112 111 114 123 124 121 86 97 83 87 77 51 28 31 51 66 90 94 101 110 121 119 66 347 329 345 334 353 324 304
57 52 47 46 43 48 50 50 52 60 49 51 60 63 85 111 118 117 112 113 120 124 103 82 81 66 78 61 47 28 33 40 76 83 91 78 96 100 57 353 29 36 48 18 298 344 301
56 51 49 48 49 48 52 53 54 56 66 68 64 84 93 91 102 106 110 115 124 117 90 67 49 76 74 68 46 40 45 59 80 81 66 68 90 66 42 52 23 11 331 344 316 47 346
52 48 47 48 47 49 50 54 53 51 54 53 57 70 93 134 121 100 123 116 102 95 85 69 45 68 53 29 42 26 19 56 79 99 79 50 56 64 33 41 226 317 335 292 255 305 5
59 53 47 43 44 47 47 46 48 48 46 43 49 58 54 202 185 153 138 119 128 79 75 68 56 74 43 68 49 12 25 91 72 71 49 33 66 104 229 190 120 178 239 261 265 314 345
58 56 51 48 43 39 40 44 41 41 41 42 53 69 48 96 165 170 170 263 143 128 90 67 68 60 54 33 23 15 34 115 56 57 28 29 104 214 226 77 227 230 271 298 275 269 336
48 43 43 43 45 44 40 37 36 36 34 38 37 42 93 93 158 174 168 138 127 135 103 54 37 35 28 33 34 7 26 61 77 59 21 137 183 154 79 57 279 241 218 221 249 326 265
36 39 34 31 35 35 40 39 37 36 32 28 30 40 41 131 141 169 172 158 125 95 74 326 2 20 9 10 12 6 15 78 54 148 152 102 133 143 196 180 178 341 194 30 329 15 288
25 22 26 24 21 26 28 28 33 34 32 38 32 24 46 113 142 152 162 161 125 49 54 279 319 336 347 47 325 8 16 42 117 106 99 204 116 4 77 31 295 247 18 280 220 185 15
13 14 14 18 17 16 18 19 20 22 28 34 34 40 42 58 96 128 144 162 250 44 264 358 316 358 27 6 354 322 39 59 84 96 22 93 157 117 215 288 249 315 20 59 58 96 15
4 5 6 7 8 9 10 10 10 12 13 26 48 44 52 69 100 113 124 141 38 102 302 328 332 5 289 319 355 28 43 16 58 48 13 346 19 352 27 13 48 27 34 338 351 5 226
359 357 1 0 1 1 1 6 3 3 6 6 37 56 50 71 113 144 360 59 72 187 221 318 314 301 46 2 7 1 56 30 33 74 85 67 331 34 357 89 172 41 116 147 250 267 281
357 355 355 354 357 359 357 357 360 356 0 360 9 89 29 42 40 338 177 55 186 204 221 345 327 69 340 9 17 27 54 187 185 56 115 62 281 32 47 103 101 135 80 160 115 264 17
345 349 352 352 351 352 355 357 358 356 353 355 356 170 21 13 9 10 73 185 180 207 152 107 49 33 330 319 5 19 274 185 159 81 94 184 316 43 24 88 41 112 153 62 5 299 262
330 340 344 346 349 350 351 353 359 359 358 344 334 173 6 2 10 19 117 211 200 127 23 59 213 315 317 321 354 299 270 253 173 133 77 127 114 291 7 198 184 103 167 70 135 176 209
323 329 332 336 339 344 346 351 353 2 3 357 329 39 354 2 47 54 112 189 147 166 114 118 130 204 211 237 268 260 240 229 175 150 141 92 149 276 239 165 360 196 203 162 139 256 245
315 319 326 332 335 339 340 346 349 354 1 358 329 325 351 1 121 45 274 123 184 149 207 154 236 202 168 233 275 215 276 15 162 153 164 188 259 343 329 6 16 222 206 180 139 77 213
307 315 322 328 334 340 345 347 349 347 355 357 325 353 42 53 72 113 99 245 216 194 215 185 188 120 112 252 213 286 292 13 208 219 242 176 185 193 224 230 165 218 205 213 173 202 271
296 302 306 313 326 340 347 348 346 345 344 2 347 341 1 321 21 88 63 327 231 228 204 198 199 200 178 240 241 225 212 346 255 277 189 160 208 236 254 275 272 266 254 250 244 246 241
281 289 297 303 323 334 344 353 351 347 337 27 360 340 332 217 226 136 151 220 214 273 165 240 212 181 194 201 198 208 161 174 226 106 184 132 263 90 274 246 251 267 262 250 246 258 260
270 281 286 296 309 322 331 342 344 339 354 43 121 67 335 329 20 91 238 174 158 301 289 324 177 78 274 257 268 273 265 255 239 192 201 177 186 355 273 360 316 296 244 233 232 208 218
264 267 278 282 291 304 314 324 333 329 330 337 147 255 115 281 279 235 209 11 247 232 241 216 309 169 281 310 304 280 260 254 247 239 225 192 146 179 282 354 273 248 284 225 215 246 201
258 258 267 276 279 294 301 306 313 311 313 296 256 198 198 217 211 278 240 247 295 280 271 270 287 275 328 316 340 334 326 338 262 208 225 220 175 246 243 203 290 297 301 212 175 158 345
249 253 253 265 276 285 293 297 293 297 302 291 253 234 210 173 244 202 193 207 211 216 325 260 263 335 330 82 97 247 244 290 304 313 32 109 201 209 171 227 252 242 302 325 152 237 44
243 246 250 257 264 266 278 283 283 283 288 285 265 225 218 253 244 213 212 199 170 152 192 293 341 328 288 121 181 201 245 230 250 244 217 50 180 221 238 247 271 263 310 348 237 303 339
222 230 241 245 258 249 262 272 281 287 289 289 277 246 224 247 267 235 228 208 176 174 150 336 346 327 39 131 163 250 194 251 311 260 201 188 191 214 224 260 266 28 16 34 336 326 316
232 253 255 245 246 237 238 263 271 280 286 283 264 258 251 246 268 264 236 247 248 242 194 196 207 163 189 164 131 270 284 349 168 284 295 280 205 219 196 239 311 318 346 308 308 303 302
Height
1536 1534 1531 1529 1527 1524 1523 1521 1520 1519 1517 1517 1516 1516 1516 1516 1517 1517 1518 1519 1520 1521 1521 1521 1521 1521 1520 1521 1525 1525 1524 1524 1523 1523 1523 1524 1525 1527 1530 1531 1533 1533 1532 1531 1530 1529 1528
1540 1537 1534 1531 1529 1527 1525 1523 1522 1522 1521 1520 1519 1519 1519 1519 1519 1520 1521 1521 1522 1522 1523 1522 1522 1521 1521 1523 1527 1526 1525 1525 1524 1523 1524 1525 1526 1528 1529 1531 1533 1533 1532 1530 1528 1527 1527
1544 1541 1537 1533 1530 1528 1526 1525 1524 1524 1523 1522 1522 1521 1521 1521 1521 1522 1523 1523 1523 1523 1523 1524 1523 1522 1522 1529 1528 1527 1526 1526 1525 1524 1525 1526 1527 1529 1530 1531 1532 1532 1532 1528 1529 1528 1526
1548 1544 1540 1536 1533 1529 1528 1527 1526 1525 1524 1524 1524 1523 1523 1523 1523 1523 1523 1524 1524 1525 1525 1524 1524 1524 1528 1530 1529 1529 1527 1527 1526 1526 1526 1527 1528 1530 1531 1532 1533 1534 1536 1542 1529 1528 1525
1551 1548 1544 1541 1537 1534 1530 1529 1527 1526 1525 1525 1525 1525 1524 1524 1525 1525 1525 1526 1526 1527 1527 1526 1526 1526 1530 1531 1531 1530 1529 1528 1528 1528 1528 1529 1530 1531 1532 1536 1540 1543 1543 1542 1537 1529 1528
1554 1551 1548 1545 1542 1539 1536 1533 1530 1529 1527 1526 1526 1525 1525 1526 1526 1527 1527 1527 1528 1528 1529 1528 1528 1531 1533 1534 1532 1531 1530 1529 1529 1529 1530 1531 1531 1535 1540 1543 1557 1546 1547 1545 1542 1530 1527
1559 1555 1552 1549 1546 1543 1540 1538 1535 1532 1530 1528 1526 1526 1526 1526 1527 1528 1528 1529 1533 1533 1531 1534 1535 1534 1534 1534 1533 1532 1530 1530 1530 1531 1533 1533 1540 1546 1544 1542 1542 1544 1547 1545 1538 1532 1529
1561 1559 1556 1553 1550 1546 1543 1540 1538 1535 1532 1529 1528 1527 1526 1526 1527 1529 1530 1530 1531 1534 1536 1536 1536 1536 1535 1534 1533 1533 1531 1532 1530 1535 1535 1540 1544 1541 1540 1540 1543 1545 1544 1541 1536 1532 1535
1561 1559 1558 1556 1553 1550 1547 1543 1540 1537 1535 1532 1529 1527 1527 1527 1528 1529 1530 1531 1531 1533 1534 1538 1536 1535 1535 1535 1534 1533 1532 1532 1534 1537 1539 1542 1541 1538 1538 1541 1542 1542 1540 1540 1541 1537 1533
1563 1561 1559 1556 1554 1551 1549 1546 1542 1540 1536 1534 1531 1529 1527 1527 1530 1529 1530 1531 1532 1532 1546 1542 1538 1538 1537 1535 1536 1535 1534 1536 1535 1539 1539 1539 1538 1538 1539 1540 1542 1539 1538 1538 1543 1546 1544
1565 1563 1560 1558 1555 1551 1549 1547 1544 1542 1539 1536 1533 1529 1528 1527 1528 1529 1531 1531 1532 1533 1572 1543 1540 1539 1538 1538 1538 1537 1536 1534 1536 1536 1539 1540 1540 1540 1539 1541 1540 1539 1538 1541 1542 1546 1547
1567 1564 1562 1559 1557 1554 1550 1547 1545 1542 1539 1537 1535 1532 1529 1528 1528 1529 1530 1532 1534 1551 1566 1544 1540 1540 1539 1538 1537 1536 1535 1535 1536 1537 1537 1540 1539 1541 1541 1540 1539 1538 1538 1543 1549 1551 1554
1568 1565 1563 1560 1558 1555 1552 1548 1545 1542 1539 1537 1536 1534 1531 1530 1531 1531 1532 1534 1550 1563 1546 1545 1543 1541 1541 1540 1537 1536 1537 1540 1543 1544 1550 1544 1541 1540 1540 1539 1540 1541 1546 1558 1553 1562 1547
1568 1565 1563 1561 1558 1556 1553 1550 1546 1543 1541 1537 1535 1535 1533 1532 1532 1532 1532 1536 1559 1545 1545 1543 1543 1542 1542 1541 1539 1538 1539 1544 1542 1545 1559 1561 1550 1540 1541 1542 1545 1547 1548 1567 1565 1570 1560
1568 1565 1563 1560 1558 1555 1552 1550 1547 1544 1541 1538 1535 1534 1533 1532 1532 1532 1533 1556 1551 1548 1543 1543 1542 1542 1542 1540 1540 1540 1541 1544 1544 1544 1549 1552 1546 1541 1541 1542 1545 1548 1555 1551 1558 1566 1574
1568 1565 1563 1560 1557 1555 1551 1549 1546 1543 1541 1538 1536 1535 1533 1532 1531 1531 1534 1547 1544 1542 1543 1543 1544 1544 1545 1545 1543 1543 1542 1542 1543 1544 1544 1550 1555 1542 1543 1544 1545 1544 1549 1559 1568 1566 1551
1567 1564 1562 1560 1557 1554 1551 1548 1546 1543 1539 1538 1536 1535 1534 1532 1531 1532 1548 1548 1542 1542 1542 1544 1545 1545 1546 1546 1546 1546 1544 1543 1543 1546 1546 1550 1556 1548 1544 1545 1544 1551 1552 1555 1561 1560 1559
1566 1564 1561 1560 1557 1554 1552 1548 1545 1542 1539 1537 1534 1535 1534 1532 1534 1538 1543 1540 1541 1541 1542 1543 1545 1546 1546 1546 1547 1546 1546 1542 1542 1543 1548 1551 1558 1565 1545 1542 1542 1542 1543 1549 1563 1559 1561
1564 1562 1561 1559 1557 1554 1551 1548 1545 1542 1539 1538 1535 1533 1533 1531 1540 1542 1540 1539 1540 1541 1542 1543 1544 1545 1546 1547 1549 1545 1542 1542 1543 1544 1548 1550 1562 1575 1547 1547 1543 1543 1542 1543 1550 1554 1550
1563 1560 1559 1559 1558 1554 1550 1547 1544 1542 1538 1539 1541 1538 1533 1533 1536 1537 1539 1539 1540 1539 1540 1541 1542 1544 1546 1547 1546 1545 1544 1543 1544 1545 1545 1546 1554 1553 1552 1539 1543 1543 1542 1541 1544 1557 1533
1559 1560 1556 1556 1557 1555 1550 1547 1544 1540 1539 1538 1541 1541 1540 1540 1539 1539 1540 1542 1540 1539 1539 1540 1541 1541 1544 1546 1545 1546 1545 1545 1544 1544 1545 1547 1557 1549 1543 1543 1542 1537 1538 1537 1537 1529 1537
1558 1556 1556 1552 1553 1555 1551 1545 1544 1542 1539 1536 1541 1544 1542 1541 1538 1538 1540 1541 1541 1539 1540 1540 1541 1541 1541 1543 1541 1542 1543 1546 1545 1542 1545 1547 1554 1558 1556 1540 1536 1529 1529 1525 1522 1514 1513
1553 1554 1552 1552 1547 1553 1551 1546 1541 1542 1538 1537 1538 1540 1543 1544 1542 1543 1540 1537 1538 1538 1539 1539 1540 1541 1542 1540 1539 1538 1538 1539 1538 1539 1542 1544 1547 1553 1536 1534 1536 1531 1513 1509 1509 1509 1508
1550 1548 1550 1548 1546 1546 1548 1547 1543 1542 1539 1537 1536 1541 1539 1543 1543 1542 1540 1539 1538 1538 1539 1538 1539 1541 1540 1538 1537 1535 1533 1531 1530 1528 1532 1537 1545 1544 1532 1536 1546 1502 1501 1501 1501 1501 1501
1546 1545 1546 1545 1544 1542 1543 1543 1542 1542 1539 1537 1536 1535 1538 1539 1539 1540 1541 1539 1538 1539 1538 1537 1536 1537 1536 1537 1538 1535 1533 1529 1521 1523 1525 1527 1537 1536 1535 1545 1516 1502 1495 1497 1497 1500 1499
1537 1541 1541 1541 1541 1540 1539 1540 1538 1540 1539 1537 1535 1536 1537 1537 1534 1533 1534 1537 1538 1538 1537 1538 1537 1536 1536 1536 1539 1542 1543 1531 1526 1523 1524 1524 1527 1531 1538 1530 1518 1502 1498 1496 1494 1502 1499
1529 1532 1534 1535 1536 1536 1536 1536 1535 1536 1535 1535 1535 1534 1536 1538 1533 1534 1534 1534 1533 1535 1537 1535 1534 1536 1536 1538 1542 1544 1539 1532 1531 1523 1522 1538 1529 1522 1520 1516 1506 1495 1495 1494 1503 1503 1498
1520 1525 1527 1529 1531 1533 1533 1533 1534 1533 1532 1533 1533 1535 1534 1535 1534 1531 1531 1531 1532 1533 1536 1537 1538 1535 1537 1542 1545 1541 1542 1533 1533 1524 1522 1527 1536 1527 1518 1515 1513 1496 1495 1502 1502 1496 1496
1520 1523 1524 1525 1525 1527 1529 1531 1530 1530 1531 1530 1530 1532 1532 1534 1532 1530 1529 1531 1529 1531 1532 1534 1536 1534 1533 1536 1542 1544 1535 1537 1535 1538 1522 1526 1519 1520 1522 1506 1497 1497 1498 1499 1498 1495 1491